カタログに戻る

KUIPER-00084

運用中通信LEO
NORAD 64830·PAYLOAD·🇺🇸 United States

打ち上げ Jul 16, 2025 から Cape Canaveral Space Force Station

Loading…

次のパス (今後24時間)

TLE

最新Source: CelesTrak SupGP

元期: Sep 14, 2026, 23:37 UTC

1 64830C 25151Q   26257.98443287 -.00001240  00000+0 -16229-3 0  2570
2 64830  51.8999 188.5304 0000690  96.3923 323.1828 14.79923167    17

AllMySatでKUIPER-00084をリアルタイム追跡

Download on the App Store